This demonstration page uses our WeatherBlox Daily Observations layout. Learn more.

Left ArrowRight Arrow

39.08367, -84.50855

Hourly Observations for March 15, 2015

Temp ( °F °C ) Dew Point ( °F °C ) Humidity (%) Winds ( mph kmh ) Pressure ( in mb ) Visibility ( mi km ) Precip ( " mm )
12:53 am 00:53 Clear 42 5.6 40 4.4 92 92 N N/A 30.15 1021 10 16.0934 N/A
1:53 am 01:53 Clear 41 5 39 3.9 93 93 N N/A 30.16 1022 10 16.0934 N/A
2:53 am 02:53 Clear 38 3.3 38 3.3 100 100 N N/A 30.18 1022 9 14.48406 N/A
3:53 am 03:53 Clear with Mist and Fog 36 2.2 36 2.2 100 100 SSW 5 7 30.18 1022 1.25 2.011675 N/A
4:05 am 04:05 Clear with Mist and Fog 36 2.2 36 2.2 100 100 SSW 5 7 30.18 1022 3 4.82802 N/A
4:34 am 04:34 Clear with Mist and Fog 37 3 37 3 100 100 N N/A 30.18 1022 1.75 2.816345 N/A
4:45 am 04:45 Mostly Cloudy with Mist and Fog 36 2.2 36 2.2 100 100 N N/A 30.18 1022 0.75 1.207005 N/A
4:53 am 04:53 Mostly Cloudy with Fog 37 2.8 36 2.2 96 96 N N/A 30.19 1022 0.5 0.80467 N/A
5:01 am 05:01 Mostly Cloudy with Mist and Fog 37 2.8 36 2.2 96 96 N N/A 30.18 1022 1 1.60934 N/A
5:08 am 05:08 Mostly Cloudy with Fog 37 3 37 3 100 100 N N/A 30.18 1022 0.5 0.80467 N/A
5:17 am 05:17 Mostly Cloudy with Fog 35 1.7 35 1.7 100 100 N N/A 30.21 1023 0.25 0.402335 N/A
5:31 am 05:31 Mostly Cloudy with Mist and Fog 36 2.2 36 2.2 100 100 N N/A 30.21 1023 0.75 1.207005 N/A
5:35 am 05:35 Mostly Clear with Mist and Fog 36 2.2 36 2.2 100 100 N N/A 30.21 1023 1.25 2.011675 N/A
5:53 am 05:53 Clear with Fog 36 2.2 36 2.2 100 100 N N/A 30.21 1023 0.5 0.80467 N/A
6:01 am 06:01 Mostly Cloudy with Fog 35 1.7 35 1.7 100 100 N N/A 30.21 1023 0.25 0.402335 N/A
6:13 am 06:13 Clear with Fog 35 1.7 35 1.7 100 100 N N/A 30.21 1023 0.5 0.80467 N/A
6:20 am 06:20 Mostly Cloudy with Fog 34 1 34 1 100 100 N N/A 30.27 1025 0.25 0.402335 N/A
6:44 am 06:44 Mostly Cloudy with Fog 36 2 34 1 93 93 N N/A 30.24 1024 0.5 0.80467 N/A
6:51 am 06:51 Partly Cloudy with Patchy Fog 34 1 34 1 100 100 N N/A 30.27 1025 5 8.0467 N/A
6:52 am 06:52 Clear with Patchy Fog 34 1.1 34 1.1 100 100 N N/A 30.24 1024 5 8.0467 N/A
7:03 am 07:03 Mostly Cloudy with Patchy Fog 34 1 34 1 100 100 N N/A 30.27 1025 0.5 0.80467 N/A
7:53 am 07:53 Mostly Cloudy with Patchy Fog 34 1.1 34 1.1 100 100 N N/A 30.25 1025 0.5 0.80467 N/A
8:00 am 08:00 Mostly Cloudy with Patchy Fog 34 1 34 1 100 100 N N/A 30.27 1025 5 8.0467 N/A
8:53 am 08:53 Mostly Cloudy with Patchy Fog 34 1.1 34 1.1 100 100 S 3 6 30.28 1026 1 1.60934 N/A
9:13 am 09:13 Sunny with Mist and Fog 37 2.8 37 2.8 100 100 N N/A 30.3 1026 4 6.43736 N/A
9:53 am 09:53 Sunny 40 4.4 40 4.4 100 100 SSW 5 7 30.3 1026 9 14.48406 N/A
10:53 am 10:53 Sunny 49 9.4 35 1.7 59 59 WNW 10 17 30.31 1026 10 16.0934 N/A
11:53 am 11:53 Sunny 52 11.1 34 1.1 50 50 VRB 7 11 30.32 1027 10 16.0934 N/A
12:53 pm 12:53 Sunny 54 12.2 36 2.2 51 51 W 7 11 30.3 1026 10 16.0934 N/A
1:53 pm 13:53 Sunny 57 13.9 34 1.1 42 42 SW 6 9 30.28 1025 10 16.0934 N/A
2:53 pm 14:53 Sunny 60 15.6 33 0.6 36 36 VRB 3 6 30.26 1025 10 16.0934 N/A
3:53 pm 15:53 Sunny 62 16.7 34 1.1 35 35 SSW 7 11 30.24 1024 10 16.0934 N/A
4:53 pm 16:53 Sunny 61 16.1 34 1.1 36 36 SSE 5 7 30.22 1023 10 16.0934 N/A
5:53 pm 17:53 Sunny 63 17.2 35 1.7 35 35 WSW 6 9 30.19 1023 10 16.0934 N/A
6:53 pm 18:53 Sunny 60 15.6 34 1.1 38 38 W 8 13 30.2 1023 10 16.0934 N/A
7:53 pm 19:53 Clear 56 13.3 35 1.7 46 46 SW 3 6 30.21 1023 10 16.0934 N/A
8:53 pm 20:53 Clear 50 10 42 5.6 74 74 N N/A 30.2 1023 10 16.0934 N/A
9:53 pm 21:53 Clear 49 9.4 41 5 74 74 N N/A 30.18 1022 10 16.0934 N/A
10:53 pm 22:53 Clear 48 8.9 39 3.9 71 71 SW 3 6 30.17 1022 10 16.0934 N/A
11:53 pm 23:53 Clear 45 7.2 39 3.9 80 80 WSW 5 7 30.16 1021 10 16.0934 N/A

Powered by AerisWeather